KC3JUG-13 Weather Reports


time (UTC)temp
F
wind
direction
speed
knots
gust
knots
rain 1hr
in
rain 24hr
in
rain mn
in
humidity
%
barometer
mb
20260510070028 50 153 0.0 0.0 0.00 0.07 0.00 96 1012.8
20260510064728 51 153 0.0 0.0 0.00 0.07 0.00 96 1012.7
20260510063428 51 153 0.0 0.0 0.00 0.07 0.00 96 1012.8
20260510062128 52 153 0.0 0.0 0.00 0.07 0.00 96 1012.8
20260510060829 52 153 0.0 0.0 0.00 0.07 0.00 96 1012.3
20260510055529 52 153 0.0 0.0 0.00 0.07 0.00 96 1012.1
20260510054229 52 153 0.0 0.0 0.00 0.07 0.00 96 1012.2
20260510052929 52 153 0.0 0.0 0.00 0.07 0.00 96 1012.2
20260510051629 52 153 0.0 0.0 0.00 0.07 0.00 96 1012.5
20260510050329 52 150 0.0 0.0 0.00 0.07 0.00 96 1012.4
20260510045029 52 150 0.0 0.0 0.00 0.07 0.00 96 1012.6
20260510043729 52 149 0.0 0.0 0.00 0.07 0.00 96 1012.6
20260510042429 52 143 0.0 0.0 0.00 0.07 0.00 96 1012.8
20260510041129 52 142 0.0 0.0 0.00 0.07 0.00 96 1012.7
20260510040030 52 142 0.0 0.0 0.00 0.07 0.07 96 1012.9
20260510035902 52 142 0.0 0.0 0.00 0.07 0.07 96 1012.9
20260510035829 52 142 0.0 0.0 0.00 0.07 0.07 96 1012.9
20260510034529 52 142 0.0 0.0 0.00 0.07 0.07 96 1012.8
20260510033229 52 142 0.0 0.0 0.00 0.07 0.07 96 1012.9
20260510031929 52 142 0.0 0.0 0.00 0.07 0.07 96 1012.8
20260510030629 52 142 0.0 0.0 0.00 0.07 0.07 96 1012.8
20260510025329 53 142 0.0 0.0 0.00 0.07 0.07 96 1012.6
20260510024029 52 137 0.0 0.0 0.00 0.07 0.07 96 1012.4
20260510022729 53 137 0.0 0.0 0.00 0.07 0.07 96 1012.5
20260510021429 53 136 0.0 0.0 0.00 0.07 0.07 96 1012.6
20260510020129 53 136 0.0 0.0 0.00 0.07 0.07 96 1012.3
20260510014829 53 136 0.0 0.0 0.00 0.07 0.07 96 1012.2
20260510013529 53 125 0.0 0.0 0.00 0.07 0.07 96 1012.1
20260510012229 54 119 0.0 0.0 0.00 0.07 0.07 96 1012.0
20260510010929 54 119 0.0 0.0 0.00 0.07 0.07 95 1012.0
20260510005629 54 119 0.0 0.0 0.00 0.07 0.07 95 1011.9
20260510004329 54 115 0.0 0.0 0.00 0.07 0.07 95 1011.8
20260510003029 54 115 0.0 0.0 0.00 0.07 0.07 93 1011.6
20260510001729 55 93 0.0 0.0 0.00 0.07 0.07 93 1011.6
20260510000429 56 69 0.0 0.0 0.00 0.07 0.07 91 1011.6
20260509235129 56 69 0.0 0.0 0.00 0.07 0.07 90 1011.5
20260509233829 57 69 0.0 0.0 0.00 0.07 0.07 90 1011.4
20260509232529 57 350 0.0 0.0 0.00 0.07 0.07 90 1011.5
20260509231229 57 350 0.0 0.0 0.00 0.07 0.07 90 1011.5
20260509225929 57 350 0.0 0.0 0.00 0.07 0.07 90 1011.5
20260509224629 58 350 0.0 0.0 0.00 0.07 0.07 90 1011.5
20260509223329 58 350 0.0 0.0 0.00 0.07 0.07 87 1011.6
20260509222029 58 350 0.0 0.0 0.00 0.07 0.07 84 1011.6
20260509220729 57 350 0.0 0.0 0.00 0.07 0.07 86 1011.6
20260509215429 57 350 0.0 0.0 0.00 0.07 0.07 87 1011.7
20260509214129 57 350 0.0 0.0 0.00 0.07 0.07 89 1011.8
20260509212829 57 350 0.0 0.0 0.00 0.07 0.07 91 1011.6
20260509211529 56 350 0.0 0.0 0.00 0.07 0.07 91 1011.6
20260509210230 56 350 0.0 0.0 0.00 0.07 0.07 89 1011.8
20260509204929 57 350 0.0 0.0 0.00 0.07 0.07 87 1011.8
20260509203630 57 350 0.0 0.0 0.00 0.07 0.07 86 1011.9
20260509202329 57 341 0.0 0.0 0.00 0.07 0.07 86 1011.9
20260509201029 57 0 0.0 0.0 0.00 0.07 0.07 87 1012.0
20260509195729 56 0 0.0 0.0 0.00 0.07 0.07 90 1012.1
20260509194429 56 115 0.0 0.0 0.00 0.07 0.07 91 1012.0
20260509193129 55 115 0.0 0.0 0.00 0.07 0.07 91 1012.3
20260509191829 55 112 0.0 0.0 0.00 0.07 0.07 92 1012.3
20260509190529 55 249 0.0 0.0 0.00 0.07 0.07 92 1012.5
20260509185230 54 249 0.0 0.0 0.00 0.07 0.07 91 1012.8
20260509183929 54 249 0.0 0.0 0.01 0.07 0.07 91 1013.0
20260509182630 54 249 0.0 0.0 0.01 0.07 0.07 91 1013.3
20260509181330 54 249 0.0 0.0 0.01 0.07 0.07 91 1013.5
20260509180030 54 249 0.0 0.0 0.01 0.07 0.07 91 1013.6
20260509174730 54 249 0.0 0.0 0.01 0.07 0.07 90 1013.6
20260509173430 54 249 0.0 0.0 0.00 0.06 0.06 90 1013.5
20260509172130 54 249 0.0 0.0 0.00 0.06 0.06 90 1013.9
20260509170830 54 249 0.0 0.0 0.00 0.06 0.06 91 1013.7
20260509165530 54 249 0.0 0.0 0.01 0.06 0.06 91 1013.9
20260509164230 54 249 0.0 0.0 0.03 0.06 0.06 92 1013.8
20260509162930 54 249 0.0 0.0 0.05 0.06 0.06 92 1013.1
20260509161630 54 249 0.0 0.0 0.06 0.06 0.06 92 1012.7
20260509160330 54 249 0.0 0.0 0.06 0.06 0.06 92 1013.5
20260509155030 54 249 0.0 0.0 0.04 0.04 0.04 91 1013.9
20260509153730 54 248 0.0 0.0 0.02 0.02 0.02 90 1014.1
20260509152430 55 248 0.0 0.0 0.00 0.00 0.00 89 1014.4
20260509151130 56 245 0.0 0.0 0.00 0.00 0.00 88 1014.3
20260509145830 56 256 0.0 0.0 0.00 0.00 0.00 87 1014.3
20260509144530 56 246 0.0 0.0 0.00 0.00 0.00 86 1014.1
20260509143230 56 245 0.0 0.0 0.00 0.00 0.00 85 1013.9
20260509141930 56 240 0.0 0.0 0.00 0.00 0.00 85 1013.7
20260509140630 57 241 0.0 0.0 0.00 0.00 0.00 83 1013.7
20260509135330 57 196 0.0 0.0 0.00 0.00 0.00 83 1013.6
20260509134030 57 196 0.0 0.0 0.00 0.00 0.00 82 1013.2
20260509132730 57 196 0.0 0.0 0.00 0.00 0.00 82 1013.3
20260509131430 56 194 1.7 3.5 0.00 0.00 0.00 82 1013.2
20260509130130 56 267 0.9 2.6 0.00 0.00 0.00 83 1013.5
20260509124830 55 250 1.7 6.1 0.00 0.00 0.00 83 1013.4
20260509123530 55 193 0.9 2.6 0.00 0.00 0.00 84 1013.1
20260509122230 54 159 1.7 3.5 0.00 0.00 0.00 84 1013.2
20260509120930 54 159 0.0 0.0 0.00 0.00 0.00 84 1013.4
20260509115630 54 159 0.0 0.0 0.00 0.00 0.00 84 1013.3
20260509114512 54 159 1.7 3.5 0.00 0.00 0.00 83 1013.1
20260509114330 54 159 1.7 3.5 0.00 0.00 0.00 83 1013.1
20260509113030 54 157 1.7 4.3 0.00 0.00 0.00 84 1013.0
20260509111730 53 186 0.9 1.7 0.00 0.00 0.00 83 1013.2
20260509110430 53 180 1.7 2.6 0.00 0.00 0.00 83 1013.1
20260509105130 53 180 1.7 2.6 0.00 0.00 0.00 84 1013.0
20260509103830 52 226 0.9 2.6 0.00 0.00 0.00 85 1012.7
20260509102530 51 226 0.0 0.9 0.00 0.00 0.00 89 1012.7
20260509101230 51 226 0.9 0.9 0.00 0.00 0.00 88 1012.9
20260509095930 51 226 0.0 0.9 0.00 0.00 0.00 88 1012.9
20260509094630 52 226 0.0 0.9 0.00 0.00 0.00 87 1012.9
20260509093330 52 226 0.0 0.9 0.00 0.00 0.00 86 1012.9
20260509092030 52 226 0.0 1.7 0.00 0.00 0.00 86 1013.0
20260509090730 52 226 0.0 0.9 0.00 0.00 0.00 85 1013.0
20260509085430 53 226 0.0 0.0 0.00 0.00 0.00 84 1013.0
20260509084130 53 226 0.0 0.0 0.00 0.00 0.00 83 1013.1
20260509082830 53 226 0.9 0.9 0.00 0.00 0.00 82 1013.3
20260509081530 54 226 0.0 1.7 0.00 0.00 0.00 82 1013.4
20260509080230 53 225 0.9 2.6 0.00 0.00 0.00 82 1013.2
20260509074930 54 265 0.9 1.7 0.00 0.00 0.00 82 1013.6
20260509073630 54 236 0.9 2.6 0.00 0.00 0.00 80 1013.6
20260509072331 54 147 0.9 1.7 0.00 0.00 0.00 80 1013.7
20260509071030 54 147 0.9 1.7 0.00 0.00 0.00 79 1013.7